Home   Weather   Cuenca   Past weeks
Flag for Ecuador

Past Weather in Cuenca, Ecuador — Yesterday and Last 2 Weeks

Now
54 °F

Cool.


Feels Like: 54 °F
Forecast: 58 / 46 °F
Wind: 2 mph from East

Location: Cuenca / Mariscal Lamar

Current Time: Jul 19, 2019 at 3:18:45 am

Latest Report: Jul 19, 2019 at 2:00 am


Visibility: N/A

Pressure: 30.33 "Hg (22.33 "Hg at 2554m altitude)

Humidity: 88%

Dew Point: 50 °F

Location of CuencaLocation

Past Weather in Cuenca — Graph

°F

Cuenca Temperature Yesterday

Maximum temperature yesterday: 68 °F (at 4:00 pm)
Minimum temperature yesterday: 54 °F (at 4:00 am)
Average temperature yesterday: 59 °F

High & Low Weather Summary for the Past Weeks

 TemperatureHumidityPressure
High75 °F (Jul 4, 2:00 pm)100% (Jul 4, 5:00 am)30.42 "Hg (Jul 4, 5:00 am)
Low43 °F (Jul 11, 5:36 am)38% (Jul 11, 12:00 pm)30.18 "Hg (Jul 4, 3:00 pm)
Average57 °F77%30.32 "Hg
* Reported Jul 4 2:00 am — Jul 19 2:00 am, Cuenca. Weather by CustomWeather, © 2019

Note: Actual official high and low records may vary slightly from our data, if they occured in-between our weather recording intervals... More about our weather records

Advertising

Cuenca Weather History for the Previous 24 Hours

Scroll right to see more
 ConditionsComfort  
Time TempWeatherWind HumidityBarometerVisibility
2:00 am
Fri, Jul 19
54 °FCool.2 mph88%30.33 "HgN/A
1:00 am54 °FCool.7 mph88%30.36 "HgN/A
12:00 am55 °FCool.3 mph82%30.36 "HgN/A
11:00 pm
Thu, Jul 18
55 °FCool.5 mph82%30.36 "HgN/A
10:00 pm55 °FCool.3 mph82%30.36 "HgN/A
9:00 pm57 °FPassing clouds.6 mph77%30.33 "HgN/A
8:00 pm59 °FPassing clouds.7 mph72%30.30 "HgN/A
7:00 pm61 °FPassing clouds.7 mph63%30.27 "HgN/A
6:00 pm61 °FPartly sunny.12 mph68%30.27 "HgN/A
5:00 pm64 °FPartly sunny.7 mph60%30.24 "HgN/A
4:00 pm68 °FPartly sunny.13 mph46%30.24 "HgN/A
3:00 pm66 °FPartly sunny.13 mph52%30.27 "HgN/A
2:00 pm66 °FPartly sunny.13 mph52%30.30 "HgN/A
1:00 pm66 °FScattered showers. Partly sunny.7 mph52%30.33 "HgN/A
12:00 pm63 °FScattered showers. Partly sunny.7 mph64%30.36 "HgN/A
11:00 am64 °FPartly sunny.8 mph60%30.36 "HgN/A
10:00 am61 °FScattered showers. Partly sunny.7 mph72%30.39 "HgN/A
9:00 am57 °FOvercast.3 mph82%30.39 "HgN/A
8:00 am55 °FOvercast.2 mph82%30.36 "HgN/A
7:00 am54 °FOvercast.No wind88%30.33 "HgN/A
6:00 am54 °FMostly cloudy.6 mph88%30.33 "HgN/A
5:30 am54 °FMostly cloudy.5 mph88%30.33 "HgN/A
5:00 am54 °FCool.5 mph88%30.33 "HgN/A
4:00 am54 °FCool.3 mph88%30.33 "HgN/A
3:00 am55 °FCool.3 mph82%30.33 "HgN/A
Weather by CustomWeather, © 2019

See weather overview